This demonstration page uses our WeatherBlox Daily Observations layout. Learn more.

Left ArrowRight Arrow

39.08367, -84.50855

Hourly Observations for December 13, 2017

Temp ( °F °C ) Dew Point ( °F °C ) Humidity (%) Winds ( mph kmh ) Pressure ( in mb ) Visibility ( mi km ) Precip ( " mm )
12:53 am 00:53 Clear 19 -7.2 9 -12.8 65 65 W 3 6 30.04 1017 10 16 N/A
1:53 am 01:53 Clear 21 -6.1 9 -12.8 59 59 W 7 11 30.03 1017 10 16 N/A
2:53 am 02:53 Clear 20 -6.7 9 -12.8 62 62 W 8 13 30.03 1017 10 16 N/A
3:53 am 03:53 Clear 18 -7.8 9 -12.8 68 68 WSW 5 7 30.02 1017 10 16 N/A
4:53 am 04:53 Clear 16 -8.9 9 -12.8 74 74 SSW 7 11 30.00 1016 10 16 N/A
5:53 am 05:53 Cloudy 20 -6.7 10 -12.2 65 65 S 6 9 29.99 1016 10 16 N/A
6:53 am 06:53 Cloudy 21 -6.1 11 -11.7 65 65 SSE 6 9 29.98 1015 10 16 N/A
7:53 am 07:53 Cloudy 22 -5.6 12 -11.1 66 66 S 6 9 29.97 1015 10 16 N/A
8:53 am 08:53 Mostly Cloudy 22 -5.6 12 -11.1 66 66 S 7 11 29.94 1014 10 16 N/A
9:53 am 09:53 Cloudy 25 -3.9 11 -11.7 55 55 S 12 19 29.91 1013 10 16 N/A
10:53 am 10:53 Cloudy 28 -2.2 11 -11.7 49 49 S 9 15 29.88 1012 10 16 N/A
11:53 am 11:53 Cloudy 31 -0.6 9 -12.8 40 40 S 12 19 29.79 1009 10 16 N/A
12:53 pm 12:53 Cloudy 34 1.1 10 -12.2 37 37 S 13 20 29.70 1006 10 16 N/A
1:53 pm 13:53 Cloudy 35 1.7 10 -12.2 35 35 S 15 24 29.62 1003 10 16 N/A
2:53 pm 14:53 Mostly Cloudy 37 2.8 9 -12.8 31 31 S 17 28 29.54 1000 10 16 N/A
3:53 pm 15:53 Sunny 38 3.3 11 -11.7 33 33 SSW 15 24 29.55 1001 10 16 N/A
4:53 pm 16:53 Mostly Cloudy 39 3.9 12 -11.1 33 33 SSW 15 24 29.51 999 10 16 N/A
5:53 pm 17:53 Cloudy 40 4.4 15 -9.4 36 36 SSW 13 20 29.52 1000 10 16 N/A
6:53 pm 18:53 Cloudy 41 5 17 -8.3 38 38 SSW 12 19 29.49 999 10 16 N/A
7:53 pm 19:53 Cloudy 42 5.6 20 -6.7 41 41 SSW 13 20 29.47 998 10 16 N/A
8:53 pm 20:53 Cloudy 45 7.2 23 -5 42 42 SW 14 22 29.48 998 10 16 N/A
9:53 pm 21:53 Cloudy 44 6.7 32 undefined 63 63 W 30 48 29.53 1000 10 16 N/A
10:53 pm 22:53 Cloudy 42 5.6 29 -1.7 60 60 W 26 43 29.57 1002 10 16 N/A
11:53 pm 23:53 Cloudy 42 5.6 28 -2.2 58 58 WNW 16 26 29.61 1003 10 16 N/A

Powered by AerisWeather